Wind_Speed
35 35 35 34 34 35 35 35 35 35 35 34 34 32 31 30 30 33 39 45 48 49 49 50 50 51 50 50 49 45 42 40 40 39 37 37 39 36 34 35 37 36 35 36 35 34 33 33 33 34 33 33 34 34 34 34 34 34 34 34 35 34 33 33 31 29 27 27 26 25 24 23 22 21 20 19 19 20 20 21 23 24 24 24 23
41 41 41 40 39 39 38 38 37 38 38 37 36 35 34 33 32 32 35 41 46 49 50 51 52 53 52 52 52 50 46 43 43 42 40 40 41 39 35 35 37 38 37 37 37 35 35 34 34 35 34 34 34 34 33 33 33 34 34 35 35 35 34 34 33 31 29 28 27 25 24 23 22 21 20 20 20 20 20 21 23 23 23 22 21
46 46 46 45 45 43 42 42 41 40 40 39 38 37 36 36 35 34 35 37 43 47 50 52 54 55 55 54 54 53 51 47 45 45 44 43 44 42 39 38 39 40 40 40 39 38 37 36 36 35 35 35 35 34 33 33 33 34 34 34 35 35 35 35 34 32 30 28 26 25 23 23 23 22 22 21 20 19 19 20 21 19 18 17 16
49 50 49 48 47 46 45 44 44 43 42 40 39 38 37 36 36 36 36 36 39 45 49 52 54 56 58 57 56 56 55 51 49 48 47 46 46 45 43 41 42 43 43 42 42 41 40 39 38 37 36 36 36 35 34 34 34 34 34 34 34 34 35 34 33 31 28 26 25 25 23 24 25 24 23 23 21 20 20 20 19 17 15 15 15
50 50 50 49 48 47 46 45 44 44 43 42 40 39 38 37 36 36 36 36 37 42 47 51 53 56 59 60 59 59 58 55 52 51 50 49 49 48 46 43 43 45 45 44 43 43 42 41 40 38 38 38 37 36 35 35 35 35 34 33 33 33 33 33 32 31 28 27 25 25 25 26 26 25 24 24 22 21 21 20 19 18 16 15 16
49 49 49 48 47 47 46 45 44 43 42 42 41 41 40 39 38 37 36 36 37 39 43 49 53 55 59 62 62 61 61 60 56 54 53 52 52 51 49 46 45 46 47 46 45 44 43 42 41 39 39 39 38 36 36 35 35 35 34 34 33 32 31 31 31 30 29 29 28 27 28 27 27 26 26 25 24 23 23 22 22 21 19 19 21
47 48 48 47 47 46 46 45 44 43 42 42 42 42 41 41 40 40 39 37 37 37 40 45 50 55 58 62 64 64 63 63 60 58 56 55 55 54 52 48 48 49 48 47 46 45 44 43 42 40 40 40 39 37 36 36 35 35 35 34 32 31 30 30 30 30 30 31 31 30 30 29 28 28 27 25 25 24 24 25 26 25 24 26 28
46 48 47 47 47 46 47 47 46 45 44 44 43 42 42 41 41 41 41 40 38 38 39 41 47 53 58 61 65 66 66 66 65 62 59 57 57 57 55 51 50 51 51 49 47 46 45 44 42 41 41 42 40 37 36 36 36 36 36 35 34 33 32 32 32 32 32 33 33 33 32 31 31 30 28 27 25 24 24 27 30 30 31 33 34
44 46 46 47 46 46 46 46 45 44 44 44 43 42 42 41 41 42 42 42 41 40 40 41 44 50 56 61 64 67 68 69 68 65 62 60 59 59 58 54 52 52 53 51 48 47 46 45 44 43 43 43 41 38 37 37 37 37 37 36 36 36 35 35 35 35 35 35 35 35 34 33 33 32 30 28 26 25 27 29 31 33 34 35 35
41 42 43 43 43 43 43 43 43 44 44 44 43 43 43 42 42 42 43 44 44 43 42 42 44 48 53 59 64 67 69 71 71 69 66 63 62 61 60 58 55 53 54 53 51 49 48 47 46 45 45 44 43 41 39 38 38 38 38 37 37 37 37 36 36 36 37 37 37 36 35 35 35 34 32 31 29 29 29 30 31 32 33 33 34
40 40 40 40 40 41 41 41 42 43 44 44 44 44 44 44 43 42 42 43 44 45 45 45 45 46 50 56 62 67 70 72 73 72 69 66 64 63 62 61 58 55 54 55 55 52 50 49 48 47 46 46 45 43 42 40 40 39 38 37 37 38 38 37 36 36 37 38 38 37 35 35 35 34 33 33 32 31 30 30 31 32 32 33 34
42 42 41 42 42 42 42 42 43 44 44 44 44 44 44 44 44 43 42 42 42 44 46 46 46 47 49 53 59 65 70 73 75 75 72 69 67 65 64 63 61 58 56 57 58 55 52 50 50 49 48 47 47 45 43 42 42 42 40 39 38 39 38 37 36 36 37 39 39 37 35 34 34 34 34 33 32 32 31 32 33 33 33 34 35
46 45 45 46 46 46 45 45 45 45 45 45 44 44 43 43 43 43 43 42 42 43 44 45 47 48 49 51 56 62 68 73 76 77 75 72 69 67 66 65 63 61 58 58 60 59 56 53 51 50 50 49 48 46 45 44 43 43 41 38 37 38 38 37 36 37 39 38 37 35 35 34 33 33 33 32 32 34 35 35 36 36 35 36 38
49 48 48 48 48 48 47 47 47 47 46 45 44 44 43 42 42 42 42 42 43 43 44 45 46 48 49 50 54 59 65 72 76 78 78 75 72 69 67 67 65 63 61 60 61 61 58 55 53 52 51 49 48 47 46 45 44 42 40 39 40 41 40 38 38 38 37 36 35 35 34 33 33 34 33 31 32 34 36 38 40 40 40 41 42
50 50 50 50 50 49 49 48 48 48 47 46 45 44 42 42 42 41 40 41 43 43 44 45 46 47 48 49 51 56 62 69 74 78 80 78 75 71 69 69 68 66 63 62 62 62 61 58 56 54 52 50 49 48 46 45 43 41 40 41 44 45 42 40 40 39 36 35 37 36 34 33 35 36 35 35 34 34 36 40 42 43 44 45 45
51 51 52 52 51 51 51 50 50 49 49 48 46 45 43 42 41 40 39 41 42 43 44 45 46 47 47 48 49 53 59 65 70 76 80 80 77 74 72 71 70 68 66 64 64 64 63 62 61 58 55 52 51 49 46 43 42 41 42 44 47 47 45 43 42 40 38 38 37 37 35 35 35 35 35 37 38 38 39 42 43 44 46 46 46
53 53 53 53 53 52 52 51 51 50 49 48 47 45 44 42 41 39 39 41 42 42 43 44 44 44 45 45 46 49 54 60 66 72 78 81 80 77 75 74 73 71 69 67 65 64 64 64 64 62 60 57 54 51 46 43 42 42 44 45 47 48 47 45 43 40 39 38 38 39 40 40 38 35 34 37 41 41 40 41 42 44 45 46 49
53 53 54 54 53 53 52 51 51 50 49 48 46 45 43 41 39 38 38 40 41 40 40 41 41 41 41 42 43 46 50 55 60 67 73 79 81 80 78 76 75 73 72 70 68 66 65 65 64 64 63 62 59 54 48 45 44 44 46 45 44 44 47 46 42 39 38 38 39 41 42 43 42 38 36 38 41 43 42 43 43 44 47 50 52
53 53 53 53 53 53 52 51 50 49 48 47 45 44 42 40 38 37 37 37 38 38 37 37 38 38 38 39 41 43 47 51 55 61 68 74 79 82 81 79 77 76 75 72 70 68 67 65 65 64 64 64 62 56 51 48 47 48 49 46 43 46 49 48 43 41 40 40 41 42 42 42 42 40 38 38 40 43 45 46 46 48 50 52 52
53 53 53 53 52 51 51 50 49 48 46 45 44 43 40 38 37 36 35 34 34 35 34 34 35 36 37 38 40 41 43 47 50 55 62 69 75 80 83 82 80 79 78 75 73 70 68 67 66 65 65 64 62 57 53 50 48 50 51 49 48 52 54 51 47 46 43 41 43 44 43 42 42 40 38 38 40 43 45 46 47 49 50 50 51
52 52 52 51 51 50 49 49 48 46 44 42 42 41 38 36 35 34 33 32 31 31 31 32 33 35 35 36 38 39 40 43 47 52 58 65 71 77 82 84 84 82 80 77 74 72 70 69 67 66 65 63 60 57 54 52 51 51 53 54 54 54 53 52 51 48 44 43 45 46 45 44 43 41 38 39 42 44 45 47 48 48 50 52 54
51 51 51 50 49 49 49 48 46 44 42 40 40 39 36 34 33 32 30 30 29 29 30 30 32 33 33 34 35 37 38 40 45 50 55 61 67 73 80 85 86 84 81 78 76 75 73 71 69 67 65 63 60 57 56 55 54 51 53 57 57 53 50 50 50 49 45 44 45 46 46 46 46 44 41 42 44 44 45 48 48 48 50 53 53
51 51 50 49 48 48 48 46 43 41 39 38 37 36 34 31 30 29 29 28 27 28 28 29 30 31 31 31 32 34 36 38 43 47 52 57 63 70 77 84 87 85 82 80 79 77 76 73 71 68 66 64 61 59 58 58 56 53 53 56 56 54 52 50 48 49 48 45 44 46 48 48 49 48 46 45 45 45 46 48 48 48 49 51 50
51 50 49 48 47 47 46 44 41 38 36 36 35 34 31 29 28 28 27 26 26 26 27 27 28 29 30 30 31 32 34 36 40 44 49 54 60 66 74 81 86 86 84 82 80 79 77 76 73 70 67 64 62 60 59 59 58 56 55 55 54 54 54 52 50 49 48 45 45 48 50 50 50 50 49 48 48 48 49 49 48 48 49 51 51
51 50 49 47 46 45 44 41 38 35 34 34 33 31 29 27 26 26 26 25 25 25 25 25 27 27 28 29 30 31 32 34 37 41 45 50 56 62 69 76 83 86 86 84 82 80 79 77 74 71 67 65 63 61 59 59 60 60 58 57 56 53 51 49 48 49 48 46 45 48 50 51 51 52 50 49 49 50 51 51 51 50 52 53 53
51 50 48 47 45 43 42 39 36 33 32 32 30 28 26 26 25 25 24 23 23 23 23 24 25 25 25 26 27 28 30 31 33 37 41 46 52 58 64 71 78 84 86 85 83 81 79 78 75 72 69 67 65 63 61 61 62 62 61 61 59 56 54 51 50 50 51 50 49 50 51 52 54 55 54 53 52 53 54 55 55 55 56 56 55
51 49 47 46 43 41 39 36 33 31 30 29 28 26 25 24 24 24 23 22 21 21 21 22 23 23 22 23 23 25 27 29 31 34 38 43 48 54 60 65 72 79 85 86 84 81 79 78 76 73 71 69 67 66 65 64 64 65 65 64 63 61 60 59 56 54 53 52 53 53 54 56 57 57 57 56 55 56 56 56 56 56 56 57 57
49 48 46 44 42 39 35 33 32 30 28 26 25 24 23 23 23 22 21 20 20 20 19 18 18 19 19 19 20 21 24 25 27 30 35 39 44 49 55 61 66 73 80 85 85 82 80 79 77 75 73 71 70 69 68 68 67 67 67 66 65 64 64 62 59 56 54 52 52 52 54 56 57 57 58 57 57 57 56 55 56 56 57 60 60
47 45 44 42 39 36 33 31 30 28 25 24 23 22 22 22 22 21 20 19 18 17 16 14 14 15 16 17 17 18 20 21 23 26 31 35 39 43 49 55 61 67 73 80 84 84 82 81 79 77 75 74 72 71 71 70 70 69 69 67 66 66 65 63 60 57 56 55 54 53 53 53 54 55 55 55 53 52 52 53 55 56 59 62 63
45 43 41 39 37 34 30 29 27 25 23 22 21 21 21 21 21 21 18 15 14 14 13 12 12 12 13 14 14 14 16 18 20 22 26 30 34 38 43 49 55 61 67 73 79 83 84 83 81 79 77 76 74 73 73 73 71 70 70 69 68 67 66 65 62 59 59 61 61 59 57 56 56 57 57 57 56 54 53 54 54 53 56 61 64
44 41 38 35 34 31 29 27 25 23 22 21 20 20 20 20 21 20 14 9 9 10 10 10 10 10 10 11 10 9 11 14 16 19 23 26 29 33 37 43 49 56 62 67 72 77 80 82 81 80 79 77 76 75 75 75 74 72 72 72 70 68 67 66 64 62 62 64 64 64 62 61 61 60 59 60 60 60 59 60 58 57 58 62 65
42 39 35 32 30 29 27 25 23 21 21 20 19 19 20 20 20 17 11 6 6 8 9 10 10 9 8 8 8 7 7 9 12 15 18 21 24 28 32 37 43 50 56 61 66 70 75 79 80 80 80 79 79 78 78 77 75 73 72 72 72 70 69 68 66 65 65 65 64 64 65 65 65 64 63 63 62 62 62 63 62 62 62 64 65
39 36 33 29 27 26 25 22 21 20 20 19 18 18 19 19 19 16 9 5 6 9 11 11 10 10 10 9 9 8 9 10 11 13 14 15 19 23 28 33 39 45 51 57 61 66 72 76 78 79 79 80 81 81 80 78 76 73 72 73 73 72 72 71 69 68 69 69 68 66 65 65 66 66 67 68 67 66 65 64 63 64 65 66 67
36 34 30 27 25 24 23 21 19 19 19 18 17 18 19 19 19 14 8 8 9 10 13 13 12 12 13 13 12 10 12 13 12 11 11 12 14 17 22 28 34 39 45 51 57 62 67 72 75 78 78 79 81 82 82 80 78 76 75 75 75 73 73 72 71 71 71 72 72 71 69 68 68 68 69 71 72 72 70 69 68 67 67 67 69
33 31 28 25 24 22 21 19 18 18 18 18 18 19 19 19 17 12 9 11 12 11 12 13 13 14 15 16 14 12 12 12 12 11 11 11 12 13 16 21 26 31 38 45 51 57 62 65 69 74 77 79 80 81 82 82 81 80 77 77 76 76 75 74 73 73 73 73 73 72 72 73 73 73 73 74 75 76 76 76 76 75 73 71 71
30 28 26 23 22 21 19 18 18 18 18 17 18 19 19 19 17 13 11 12 14 12 11 11 13 14 15 17 17 16 13 12 12 13 13 13 13 12 12 14 18 23 30 37 44 50 56 59 61 67 73 76 78 79 80 80 82 82 80 78 78 78 77 75 75 75 76 76 76 77 77 78 78 78 77 77 77 78 78 79 79 79 78 76 75
27 26 24 21 20 19 18 18 18 18 17 17 18 20 20 20 18 15 12 12 14 15 13 11 12 15 16 17 18 19 17 16 16 16 15 15 15 14 12 11 13 17 23 29 35 41 47 53 57 61 67 71 74 76 78 78 79 80 80 80 79 79 78 76 75 75 76 77 78 79 80 80 80 80 80 79 78 78 78 79 79 78 79 79 80
23 23 23 20 19 18 18 18 18 18 17 18 19 21 22 22 19 16 13 12 12 14 13 11 11 14 16 17 19 19 18 18 18 18 17 17 18 19 17 15 15 17 19 23 27 32 36 42 47 53 59 64 68 71 73 74 76 77 78 79 79 79 79 78 78 78 78 79 79 79 79 79 79 78 78 78 77 77 77 79 80 80 81 82 83
21 21 21 20 18 17 17 17 18 17 18 19 21 22 23 22 19 16 14 13 12 13 13 12 11 11 11 14 16 18 18 18 18 18 18 18 19 22 23 22 20 20 21 23 25 27 29 32 35 40 47 53 58 62 65 67 69 71 73 75 76 77 77 78 78 79 79 79 80 80 80 81 81 81 81 81 81 81 82 83 84 85 85 85 86
20 20 20 19 17 16 16 17 17 17 18 19 21 23 24 22 19 17 16 15 15 15 14 13 13 11 9 10 12 15 17 17 17 18 20 20 20 22 26 26 25 24 24 25 27 29 30 30 30 32 36 41 45 49 53 57 60 63 66 69 71 72 73 73 73 74 74 76 77 78 79 81 82 83 84 85 85 86 86 86 86 87 88 89 90
19 19 19 17 16 15 16 17 17 17 18 19 21 23 25 23 21 19 18 18 17 17 16 16 14 12 10 10 11 13 14 14 13 14 18 19 19 20 24 27 27 26 25 25 27 28 30 31 31 30 31 34 38 41 43 46 50 54 58 61 63 64 65 66 66 67 68 70 72 74 75 77 78 79 81 82 82 83 84 84 86 87 87 88 89
18 18 17 16 15 15 16 17 17 17 18 20 22 25 26 26 25 23 21 21 20 20 19 18 15 12 10 11 12 12 12 12 11 12 15 18 18 19 21 22 24 24 23 23 23 24 26 30 33 34 34 35 37 38 39 40 43 46 49 51 54 56 57 59 60 61 62 63 66 68 70 72 73 74 76 77 79 80 81 82 83 84 85 86 86
17 16 16 15 14 15 17 17 17 17 18 20 23 26 28 29 29 26 24 23 23 22 21 20 17 14 12 11 12 12 12 12 11 13 15 18 20 21 23 23 24 24 23 23 23 25 27 30 34 37 38 39 40 40 40 41 42 43 45 47 49 51 53 55 57 59 61 62 64 66 68 70 71 72 74 75 77 78 79 80 81 83 84 86 87
16 15 14 14 14 15 16 16 17 18 19 22 25 28 30 31 31 29 25 23 23 23 22 22 21 18 14 12 13 13 14 13 13 13 14 17 20 23 25 27 28 29 29 28 28 30 32 34 35 37 39 41 42 43 44 45 46 47 48 49 51 53 55 56 58 60 62 63 65 66 68 69 70 71 72 74 75 77 79 80 82 84 86 89 91
15 14 13 13 14 14 15 16 17 19 22 25 28 30 31 33 33 31 26 23 23 24 24 23 23 23 20 17 15 16 16 16 16 15 16 17 20 23 25 27 28 29 31 32 33 35 37 38 39 41 43 44 46 47 48 49 50 51 52 53 54 56 58 59 61 63 64 65 66 67 68 69 70 72 73 75 77 79 81 83 86 88 90 92 95
13 12 12 12 13 13 14 16 18 21 25 29 31 32 33 34 34 32 29 25 24 25 25 25 25 25 24 22 20 19 19 19 20 19 19 20 22 23 25 27 28 28 29 31 33 36 38 40 42 44 46 47 49 50 51 52 53 53 54 55 57 58 59 61 62 64 65 66 67 68 69 70 72 74 76 78 80 82 84 86 88 90 92 94 96
12 11 11 11 12 13 15 17 20 24 29 32 33 34 34 35 34 33 32 30 28 27 28 27 26 25 25 25 24 24 23 23 23 23 23 23 24 26 27 28 30 31 31 32 34 36 38 41 42 43 44 46 47 49 50 52 53 54 56 57 58 60 61 62 64 65 67 68 70 72 73 75 77 79 81 82 84 86 87 89 90 92 93 95 97
11 11 11 11 12 13 15 18 21 26 31 34 35 35 35 35 34 34 35 33 32 30 30 30 29 28 27 27 28 27 27 26 26 26 26 27 27 29 30 31 32 33 34 35 36 38 40 42 44 45 46 48 49 50 51 53 54 55 57 58 60 61 63 65 66 68 70 73 75 77 78 80 82 83 85 86 88 89 90 92 94 95 97 98 100
10 10 11 11 11 12 15 19 23 28 32 35 36 36 36 35 35 36 36 35 34 32 31 30 30 29 29 29 30 30 31 30 30 30 31 31 31 32 33 35 36 37 38 39 40 41 43 45 47 48 50 51 53 55 56 57 58 60 61 62 64 66 68 70 72 74 75 77 79 81 82 84 86 87 89 90 92 93 94 96 97 99 100 101 103
9 9 9 10 11 13 16 21 25 29 32 35 37 38 37 37 37 38 37 36 35 33 32 30 30 30 30 30 31 32 33 33 34 34 34 34 35 35 36 37 38 39 40 41 43 44 46 47 49 50 51 52 53 55 57 58 60 62 63 65 67 68 70 72 74 76 78 80 81 83 84 86 87 89 90 91 93 94 95 97 98 99 101 102 103
8 8 9 10 12 15 18 23 27 30 32 34 37 38 39 39 39 39 39 38 37 36 34 32 31 31 32 32 32 33 35 36 36 37 38 38 39 39 40 40 41 42 43 43 45 46 47 48 50 52 53 55 56 57 59 60 62 63 65 67 68 70 71 73 75 76 78 80 81 83 84 86 87 89 90 92 93 95 96 98 99 100 101 102 103
Wind_Direction
298 296 294 293 292 292 291 290 290 289 288 287 284 281 276 268 258 249 246 247 247 244 239 235 234 234 234 233 233 232 230 227 225 225 224 225 228 226 218 217 221 217 208 204 202 200 201 202 200 197 196 198 200 201 201 202 204 205 205 205 205 205 206 209 211 212 215 216 216 217 219 220 223 231 240 252 263 270 274 276 278 278 278 279 281
302 301 300 299 297 296 294 293 291 289 288 286 284 282 279 275 267 257 248 245 245 245 241 236 233 232 233 233 232 231 230 227 223 223 223 223 225 224 217 215 217 215 208 205 204 203 204 206 204 201 200 202 203 204 205 207 209 210 209 209 208 207 210 213 214 216 219 219 217 220 224 226 231 240 249 261 270 274 276 279 280 280 280 279 279
301 299 298 297 296 294 293 292 291 289 288 285 283 280 278 275 271 265 256 247 243 243 242 238 233 231 231 232 231 231 230 227 223 222 222 223 224 223 219 215 215 214 210 207 206 206 206 208 207 205 204 206 206 206 208 211 213 214 213 212 211 211 214 217 219 220 222 223 223 227 234 239 244 249 257 267 271 272 275 280 282 283 284 282 281
296 294 293 292 291 291 291 290 290 289 288 286 284 281 277 274 271 266 260 252 244 241 242 240 235 231 229 230 230 230 229 226 223 221 221 223 225 224 221 216 215 214 212 209 209 208 209 210 209 207 207 209 210 209 210 212 214 216 216 215 215 215 218 222 225 226 228 230 233 237 243 248 252 256 262 267 267 267 273 278 279 281 282 282 281
291 290 289 289 288 289 288 288 287 286 286 286 285 284 282 279 274 268 262 255 247 241 240 240 238 233 229 229 229 229 228 226 223 221 221 222 224 225 222 216 214 214 213 212 211 209 210 211 210 209 209 212 212 211 210 212 214 215 215 217 218 220 222 227 231 233 235 237 240 245 248 251 255 259 263 264 262 263 268 272 272 271 272 273 275
288 287 288 288 288 288 288 287 285 285 285 285 286 285 284 282 278 273 266 259 252 244 239 238 238 236 231 228 228 227 226 225 223 221 220 222 223 225 222 216 212 214 215 213 211 210 210 212 212 210 210 212 212 211 210 211 214 215 216 218 220 223 226 230 235 238 240 242 243 246 249 252 256 260 261 260 259 261 265 267 266 265 266 270 275
287 287 287 288 288 288 288 288 288 287 287 286 285 284 282 280 277 274 270 265 258 251 243 238 237 237 234 229 227 226 225 225 223 221 220 221 222 224 223 217 212 213 216 214 211 209 209 211 212 210 209 212 212 211 209 210 213 215 217 219 222 225 228 231 235 239 243 245 246 248 250 254 257 258 258 256 258 263 266 265 265 265 268 272 277
284 285 286 287 287 287 287 287 287 287 286 284 283 281 279 277 275 273 271 268 263 257 250 242 237 235 234 232 228 226 224 224 223 221 220 220 221 223 223 220 214 212 215 215 212 210 209 210 211 209 208 211 213 211 209 210 212 215 217 220 222 225 228 230 234 238 242 245 247 249 251 254 255 255 253 254 259 265 266 266 268 270 272 273 275
282 283 284 285 285 285 284 284 284 283 283 282 282 281 279 277 275 273 271 269 266 261 255 248 241 235 233 232 229 226 224 223 222 221 220 219 220 221 223 221 216 212 213 214 213 211 211 211 211 210 209 212 213 212 211 212 215 218 219 220 222 225 228 231 234 237 240 243 245 247 249 251 252 250 249 251 256 260 264 266 270 273 273 274 275
282 281 281 282 282 282 282 283 284 284 284 284 284 283 281 279 276 273 271 269 266 264 259 253 246 239 234 232 230 228 225 223 222 220 219 219 219 220 221 221 218 214 213 215 215 214 213 212 211 211 211 213 215 215 214 215 218 220 222 222 223 226 229 233 236 239 242 245 246 248 248 249 248 247 247 250 255 259 264 269 272 273 274 276 277
288 287 286 286 285 285 286 286 286 286 286 286 285 284 283 282 279 276 272 268 265 263 261 257 251 243 236 232 231 229 226 223 222 220 219 219 218 218 220 220 219 216 214 215 217 216 214 213 213 213 213 214 217 217 216 217 219 222 224 224 226 229 232 235 238 241 245 248 250 251 252 251 252 254 257 260 263 266 270 272 273 274 276 278 277
297 296 296 295 294 293 292 291 290 289 288 287 286 284 283 282 280 278 275 271 266 261 259 256 253 247 240 234 231 229 227 225 222 220 220 219 218 217 218 220 219 217 214 215 217 217 215 215 215 215 215 216 217 218 218 220 222 224 225 226 229 232 234 236 240 243 246 248 251 253 254 255 258 262 267 271 272 272 272 274 276 277 278 277 275
301 301 300 299 298 296 295 294 292 291 289 288 287 285 284 281 279 277 274 271 268 263 259 256 253 249 243 237 233 230 228 226 223 221 220 219 218 217 217 219 219 217 215 214 216 218 217 216 217 218 218 218 219 219 221 223 225 225 226 228 232 236 238 239 240 243 246 249 252 254 256 258 262 266 272 276 276 273 269 270 273 274 273 272 273
302 301 299 298 297 296 295 294 293 292 291 290 288 287 285 282 279 276 273 271 267 264 260 257 253 250 246 240 235 231 229 227 224 221 220 219 218 217 217 218 219 218 216 214 215 217 217 217 218 219 220 220 221 223 224 225 225 225 225 227 230 235 238 240 242 244 248 252 254 255 259 264 269 273 276 278 278 278 272 268 268 267 267 272 278
299 299 298 297 297 297 297 296 295 294 293 292 290 289 286 283 280 277 274 271 267 264 261 258 255 251 247 242 237 233 230 228 225 222 220 219 219 217 216 217 218 218 217 214 214 216 217 217 218 219 220 221 222 224 226 225 224 223 225 228 231 234 236 240 242 243 245 249 250 253 260 268 274 277 278 276 277 280 278 272 269 268 270 276 281
298 298 299 299 299 299 298 298 297 296 295 294 292 291 289 286 283 280 276 272 267 264 262 259 256 253 250 245 240 236 232 229 226 224 221 220 219 218 216 217 218 218 217 216 215 216 217 218 219 220 220 221 222 224 225 225 224 225 228 231 234 236 237 240 244 246 248 251 254 256 261 269 274 277 279 278 276 278 279 274 271 272 276 279 282
299 299 299 299 299 299 299 298 298 297 296 295 294 292 290 288 285 281 276 272 268 265 262 260 258 256 253 248 243 239 235 231 228 225 222 220 219 218 217 217 217 218 218 217 216 216 218 219 219 220 221 221 223 224 224 225 226 227 230 233 236 239 241 242 246 250 253 256 260 262 264 268 272 274 278 276 270 271 275 274 272 275 278 280 282
298 298 298 299 299 299 299 299 298 297 296 296 294 293 291 288 285 280 275 271 269 267 264 262 260 257 254 251 246 241 238 234 229 227 224 221 219 219 218 217 217 218 218 218 217 217 218 219 220 221 222 223 223 224 224 226 228 232 234 236 239 243 245 245 246 250 253 256 261 264 264 265 268 272 274 269 263 264 269 272 272 274 276 278 281
298 298 298 299 299 299 299 299 298 297 296 295 294 292 290 287 283 278 273 271 269 268 265 262 260 257 253 251 247 242 239 236 231 227 225 223 220 218 218 218 217 218 218 219 218 218 218 219 220 221 223 224 224 224 225 226 230 235 239 240 241 245 249 249 248 249 252 256 260 263 263 264 267 271 273 268 264 265 268 270 272 273 272 274 278
298 299 299 299 299 299 298 297 296 296 295 294 292 290 288 285 281 276 273 271 269 267 264 261 258 255 252 249 246 242 238 236 232 227 225 224 221 218 218 218 218 218 218 219 219 219 218 219 220 222 224 225 224 223 224 226 229 234 238 241 243 245 248 251 252 253 255 258 262 265 266 266 267 270 271 269 266 265 267 269 272 272 270 272 276
298 298 298 299 299 298 297 296 296 295 295 293 290 288 286 283 279 276 273 270 267 264 262 260 256 254 251 248 246 243 238 235 231 227 224 223 221 218 217 217 218 218 218 218 219 219 219 219 220 222 223 224 224 222 223 226 228 232 236 239 242 244 247 250 253 254 256 257 259 261 264 266 267 268 268 266 263 263 266 269 272 270 269 273 278
299 298 299 299 298 297 296 296 296 296 295 292 288 286 284 281 277 275 272 268 265 262 259 257 255 253 251 248 246 244 239 235 231 227 224 222 221 219 217 217 218 218 218 218 219 220 220 220 220 221 223 224 224 224 224 224 226 231 236 239 241 244 248 250 251 251 251 251 253 255 258 261 264 265 266 266 264 264 266 269 272 271 271 276 281
299 299 300 300 299 298 297 297 297 296 293 289 286 284 282 279 275 272 269 266 264 261 259 257 256 254 252 249 247 244 240 234 231 228 224 222 221 219 217 216 217 218 218 218 218 220 220 220 220 222 223 224 224 224 224 224 225 229 236 239 241 243 246 248 248 249 250 250 250 251 253 257 260 262 264 266 267 268 268 269 273 273 273 276 279
300 301 301 300 299 298 297 297 296 294 290 287 284 282 280 276 273 269 267 265 263 261 260 258 256 255 253 250 247 244 241 236 231 229 226 223 222 220 218 217 217 218 219 219 219 220 220 221 221 222 223 224 224 224 225 226 227 230 234 238 240 242 245 247 247 248 251 252 251 251 253 255 257 259 261 263 264 266 266 267 269 272 272 274 275
302 302 302 301 299 298 297 297 295 292 288 284 282 280 277 273 270 268 266 265 264 262 260 258 255 253 252 250 247 244 242 238 233 230 227 225 223 222 220 218 217 217 218 219 219 220 221 221 222 222 223 224 225 225 226 227 229 230 232 236 238 239 242 246 247 247 249 249 249 250 251 252 253 255 258 260 261 262 263 262 264 268 271 273 275
302 302 302 301 299 298 297 296 293 290 285 282 280 277 273 270 268 267 266 265 264 262 259 256 253 250 249 249 247 245 243 240 235 231 228 226 225 223 222 220 218 217 218 219 220 220 221 222 223 223 223 225 226 227 227 228 230 231 232 234 235 235 236 240 243 245 245 246 248 250 251 250 250 251 253 256 259 261 261 260 262 265 268 271 274
302 302 301 300 299 298 297 295 292 288 283 280 277 273 269 267 266 266 266 264 263 260 258 257 256 252 250 250 249 247 244 241 237 232 229 226 225 224 223 222 220 218 218 219 220 221 221 222 223 224 225 226 227 229 230 231 232 233 232 233 234 235 236 239 242 243 244 245 248 250 250 250 251 252 253 256 259 260 260 259 261 264 268 272 274
301 301 300 299 298 298 296 293 290 286 281 277 273 269 266 265 265 265 265 263 260 259 259 261 259 254 251 251 250 249 246 242 239 236 231 228 227 225 224 223 222 220 219 219 219 220 221 223 224 225 226 227 229 230 232 233 235 234 234 234 235 236 237 239 242 243 243 243 246 249 250 250 252 254 256 257 258 259 260 261 262 264 268 271 274
301 300 300 299 298 297 295 291 287 283 278 273 269 266 264 263 264 264 262 260 259 258 258 260 257 248 244 243 243 246 245 241 240 240 235 230 228 227 226 224 223 222 220 219 219 220 221 222 223 225 226 228 229 231 232 234 235 235 234 235 236 237 238 240 242 243 243 242 243 246 249 251 251 252 253 255 257 259 262 264 266 268 270 272 276
300 300 300 299 298 296 292 287 283 280 275 269 265 263 262 261 263 264 263 261 261 257 250 246 241 236 235 233 234 243 246 241 241 242 237 233 231 229 227 225 224 223 222 221 220 220 221 222 224 225 227 228 229 231 233 234 234 234 234 235 237 238 239 241 242 243 243 242 241 243 246 249 252 252 253 255 256 257 259 262 264 266 269 272 275
300 300 300 299 297 293 289 284 280 276 270 266 262 260 259 259 262 265 264 262 259 251 238 229 220 215 222 223 223 236 247 244 243 242 238 236 234 232 229 227 225 224 223 222 221 221 222 223 224 225 227 228 229 231 232 234 233 233 233 235 237 239 240 241 241 242 244 244 244 245 247 250 253 256 258 259 259 258 259 260 260 260 262 265 267
300 300 300 297 294 289 285 281 276 271 266 262 259 256 255 257 261 263 257 240 233 229 221 215 201 189 195 202 203 217 233 235 239 240 237 236 235 232 230 229 226 225 224 223 222 222 222 223 224 225 226 228 229 230 232 234 235 234 234 235 238 239 241 241 241 242 243 245 247 249 251 252 254 257 259 260 259 258 259 260 261 263 264 265 266
299 299 298 295 289 285 282 277 272 266 262 259 254 252 251 251 256 259 248 210 198 201 202 199 187 176 174 168 168 187 203 208 218 225 225 229 233 231 230 228 226 225 224 223 222 222 222 222 223 224 226 228 229 231 233 235 238 238 238 238 239 241 242 243 244 244 245 247 249 252 254 254 255 256 257 257 257 258 258 260 262 264 266 268 268
298 297 296 292 286 282 278 274 268 262 259 256 250 247 246 246 251 254 229 181 181 191 194 190 181 175 173 163 158 177 194 195 200 207 211 217 226 229 230 229 227 225 224 222 222 223 223 223 223 224 225 227 229 231 233 235 238 240 240 240 240 242 244 246 247 248 249 250 252 253 254 254 254 254 256 257 258 258 259 261 263 266 268 269 269
297 295 293 289 284 280 275 270 264 258 255 252 245 243 244 246 249 246 210 187 191 195 193 191 185 180 181 178 174 180 191 194 194 198 201 204 210 219 227 228 227 226 226 225 223 223 224 224 224 225 226 228 230 232 233 235 237 239 240 241 241 242 244 246 248 249 250 252 253 254 255 255 255 255 256 257 259 261 262 264 266 268 270 270 269
295 293 290 286 282 278 272 266 260 255 251 247 242 239 241 244 245 237 212 199 203 202 200 199 192 185 188 192 189 187 190 197 202 202 200 201 204 209 216 221 223 225 227 226 226 225 225 225 226 227 227 229 231 233 234 235 237 239 240 241 242 243 245 247 248 250 251 252 254 254 255 255 256 257 258 260 262 264 265 266 268 269 269 269 268
292 290 287 283 279 274 269 263 257 253 248 242 236 232 233 236 238 232 216 207 208 206 202 202 198 193 194 198 198 196 196 200 203 203 201 202 201 198 196 203 215 223 227 227 227 227 226 226 227 229 230 230 232 234 235 236 238 240 241 242 243 244 245 247 248 250 251 252 253 254 255 257 258 260 261 263 264 265 266 266 267 267 267 267 267
289 286 283 281 275 270 266 260 255 250 245 238 232 228 228 229 232 229 219 212 212 206 198 196 200 202 202 203 206 208 208 209 211 208 204 204 203 197 192 195 206 216 223 226 227 228 228 227 228 230 231 232 234 235 237 238 240 241 242 243 244 245 246 247 248 249 251 252 254 255 257 259 260 261 262 262 263 264 265 266 266 267 267 268 269
287 283 280 277 273 267 262 257 252 247 241 235 230 229 230 232 231 226 218 215 214 209 203 201 205 210 212 213 213 214 215 219 221 218 211 211 211 205 198 198 205 213 219 223 225 226 227 229 231 234 234 234 235 237 238 239 241 242 244 245 246 247 248 249 250 252 253 255 256 257 258 259 260 260 261 262 262 264 265 266 267 267 268 268 269
286 280 277 275 271 265 258 253 249 244 239 234 229 228 231 234 232 225 219 217 216 215 215 215 214 216 226 230 227 224 220 219 222 223 219 218 220 215 209 208 212 218 224 228 230 231 230 231 234 239 242 242 240 240 240 240 241 242 244 245 246 248 249 251 252 253 254 255 256 257 257 258 260 261 262 263 264 264 265 265 266 266 267 268 269
285 280 276 272 269 261 253 249 245 240 235 231 226 225 229 232 231 226 222 221 222 223 226 227 222 220 229 238 237 235 231 224 221 225 225 223 223 220 216 216 218 222 227 233 237 240 240 237 234 237 243 247 246 245 244 243 243 243 244 245 247 248 249 251 252 253 255 256 257 258 258 259 260 261 262 263 264 265 265 266 267 268 269 270 271
283 279 275 271 265 257 249 245 241 235 230 225 221 222 225 228 230 227 223 222 226 230 234 235 227 217 222 235 236 233 233 228 222 221 225 228 227 225 224 226 228 229 232 238 242 245 244 239 235 234 237 242 246 249 249 248 247 246 246 246 247 248 249 250 250 252 253 255 256 258 259 260 261 262 263 265 266 267 268 269 270 271 272 274 275
281 277 273 268 259 251 246 242 236 230 226 220 218 219 221 225 229 229 224 221 225 232 239 244 240 226 217 226 234 235 235 234 229 221 219 222 227 229 230 234 237 239 241 243 245 245 244 241 239 239 240 242 245 249 250 249 248 248 247 247 248 248 249 249 250 251 253 255 257 259 260 262 263 264 265 267 268 269 270 271 272 273 274 274 275
280 275 269 262 253 247 243 238 230 224 219 215 215 218 220 224 229 231 226 220 223 230 237 243 247 244 234 230 236 242 242 240 238 233 224 220 223 225 228 232 237 240 241 240 239 240 242 243 243 244 245 246 248 250 251 251 250 250 250 251 252 253 254 255 256 257 259 260 262 263 264 265 266 267 268 269 270 270 270 271 271 271 271 271 272
279 273 265 256 248 243 238 231 223 216 212 211 213 217 221 225 230 233 229 221 221 227 231 235 241 247 248 246 243 244 245 245 245 244 239 233 229 227 227 229 233 238 241 241 239 239 241 242 242 243 244 246 248 249 251 252 253 254 255 257 258 260 261 262 263 264 265 266 267 267 268 269 269 270 270 270 270 269 269 269 269 269 270 270 270
279 272 262 251 244 237 229 222 216 209 207 210 213 216 220 225 230 234 234 227 222 223 227 230 233 240 247 252 253 251 248 247 247 246 245 244 241 238 234 232 232 235 240 243 244 245 245 245 244 244 244 245 247 248 250 252 254 256 258 260 261 262 263 264 265 266 267 268 269 269 269 269 270 270 270 270 270 269 270 270 270 271 271 272 273
276 267 255 243 236 229 221 216 211 206 206 211 215 217 220 224 229 233 235 234 228 224 225 228 231 234 240 247 252 254 254 252 250 249 247 246 246 246 244 241 238 237 239 241 244 247 249 250 250 251 251 251 251 252 253 254 256 258 260 261 262 263 264 264 265 266 267 267 268 269 269 270 270 270 271 271 271 272 272 273 273 274 274 275 275
271 261 249 237 228 222 218 213 207 204 206 211 215 217 220 224 228 231 235 237 235 230 227 227 230 233 236 239 243 247 250 251 252 253 252 250 249 250 251 251 249 247 246 245 246 248 250 252 254 255 255 256 256 256 256 257 258 259 260 261 262 262 263 264 264 265 266 266 267 267 268 269 269 270 271 271 272 272 272 273 273 273 273 273 274
266 257 248 238 226 217 213 209 205 205 207 211 214 216 218 221 225 230 234 237 239 238 236 233 232 232 234 236 239 241 244 246 247 249 250 251 251 252 253 254 255 255 254 252 251 251 252 254 256 257 257 257 258 258 259 260 260 261 261 262 262 263 263 263 264 264 265 265 265 266 266 267 267 268 268 268 269 269 269 270 270 271 271 272 273
263 251 243 232 220 211 208 207 206 207 209 211 212 215 217 220 224 228 232 235 237 240 241 240 239 237 237 237 238 240 243 245 247 248 249 249 250 251 252 253 254 255 256 256 255 254 253 254 255 256 258 258 259 259 259 260 260 261 261 262 262 262 263 263 263 263 263 263 264 264 265 265 266 266 267 267 268 269 270 270 271 272 273 274 275
259 242 229 218 211 208 207 208 208 209 210 212 213 215 217 220 224 228 232 235 237 238 238 238 239 240 242 243 243 245 247 248 250 252 252 253 253 253 254 254 255 255 256 257 258 258 258 257 257 257 258 259 260 261 262 262 263 263 264 264 265 265 265 265 266 266 266 266 266 267 267 268 268 269 270 271 272 273 273 274 275 276 277 278 279
Height
10861 10860 10860 10859 10859 10858 10858 10858 10857 10857 10856 10856 10855 10855 10856 10856 10856 10856 10855 10855 10856 10857 10860 10862 10864 10867 10869 10871 10873 10876 10879 10881 10883 10885 10887 10887 10887 10888 10891 10894 10895 10896 10898 10900 10901 10902 10904 10906 10908 10910 10912 10915 10917 10919 10920 10923 10925 10926 10928 10930 10932 10935 10938 10939 10941 10943 10944 10944 10946 10947 10948 10949 10951 10952 10953 10954 10955 10955 10955 10954 10954 10954 10954 10954 10954
10853 10852 10851 10851 10851 10851 10851 10851 10851 10850 10850 10849 10849 10849 10848 10849 10849 10849 10849 10849 10849 10850 10852 10854 10857 10859 10862 10864 10867 10870 10873 10876 10878 10880 10882 10882 10882 10884 10887 10889 10890 10892 10895 10897 10899 10900 10902 10905 10906 10908 10910 10912 10914 10916 10919 10921 10923 10924 10926 10928 10931 10933 10935 10937 10939 10941 10942 10943 10944 10945 10945 10947 10948 10950 10951 10951 10952 10952 10952 10952 10951 10951 10951 10951 10951
10847 10846 10845 10844 10844 10844 10844 10844 10843 10843 10842 10842 10842 10842 10842 10842 10842 10842 10842 10842 10843 10843 10844 10847 10849 10852 10855 10857 10860 10863 10866 10869 10872 10874 10876 10877 10878 10879 10882 10885 10887 10889 10891 10893 10895 10897 10899 10901 10904 10906 10909 10910 10911 10914 10917 10919 10921 10922 10924 10926 10929 10931 10933 10934 10936 10938 10939 10941 10942 10943 10943 10944 10945 10946 10947 10948 10948 10949 10949 10949 10948 10948 10948 10948 10948
10842 10840 10839 10838 10837 10837 10837 10837 10836 10835 10834 10834 10834 10835 10835 10835 10835 10835 10835 10835 10836 10836 10837 10839 10841 10844 10847 10850 10853 10856 10859 10862 10865 10868 10870 10872 10873 10874 10877 10881 10883 10884 10887 10889 10891 10893 10895 10897 10900 10903 10906 10907 10909 10912 10914 10916 10918 10920 10922 10924 10926 10928 10930 10932 10933 10935 10937 10938 10939 10939 10940 10941 10942 10943 10944 10944 10945 10945 10946 10945 10945 10945 10945 10945 10945
10837 10835 10833 10832 10831 10830 10830 10830 10829 10828 10827 10827 10826 10826 10826 10827 10827 10827 10827 10828 10828 10829 10830 10831 10834 10836 10839 10842 10845 10848 10851 10855 10858 10861 10864 10866 10867 10868 10871 10875 10878 10880 10882 10884 10886 10889 10891 10894 10896 10900 10902 10904 10906 10909 10911 10912 10914 10916 10919 10921 10922 10925 10927 10929 10930 10932 10933 10934 10935 10936 10936 10937 10938 10939 10940 10940 10941 10942 10942 10942 10942 10942 10942 10942 10942
10832 10829 10828 10827 10825 10824 10823 10823 10823 10822 10821 10820 10819 10819 10819 10819 10819 10819 10819 10820 10821 10822 10823 10824 10826 10828 10831 10834 10836 10840 10843 10847 10851 10854 10857 10860 10861 10863 10866 10870 10873 10876 10878 10880 10882 10885 10887 10890 10893 10896 10899 10901 10902 10905 10907 10910 10912 10914 10916 10917 10919 10921 10924 10925 10927 10928 10929 10930 10931 10931 10932 10933 10934 10935 10936 10937 10937 10938 10939 10939 10938 10938 10939 10938 10938
10827 10824 10823 10821 10820 10818 10817 10816 10815 10815 10814 10814 10813 10813 10812 10812 10811 10811 10811 10812 10813 10814 10816 10817 10819 10820 10822 10825 10828 10832 10835 10839 10843 10847 10850 10853 10855 10857 10860 10864 10868 10871 10873 10875 10878 10881 10883 10886 10889 10892 10895 10897 10899 10902 10904 10906 10908 10910 10912 10914 10916 10918 10919 10921 10922 10923 10924 10925 10927 10927 10928 10929 10930 10930 10931 10933 10933 10934 10935 10935 10934 10934 10935 10935 10934
10822 10820 10818 10816 10815 10813 10811 10810 10809 10808 10808 10808 10807 10807 10806 10805 10805 10804 10804 10805 10806 10807 10808 10809 10811 10812 10814 10816 10820 10823 10827 10830 10834 10838 10842 10846 10849 10851 10855 10859 10862 10865 10868 10871 10874 10877 10879 10882 10885 10888 10891 10892 10895 10898 10901 10903 10905 10906 10908 10910 10912 10914 10915 10916 10917 10918 10919 10920 10922 10923 10924 10925 10925 10926 10927 10928 10929 10931 10931 10931 10930 10931 10931 10930 10930
10819 10816 10814 10812 10810 10809 10807 10806 10805 10804 10803 10802 10801 10801 10800 10799 10798 10797 10797 10797 10798 10799 10800 10801 10802 10803 10805 10808 10811 10815 10818 10821 10825 10830 10834 10838 10842 10845 10848 10852 10857 10860 10863 10866 10869 10872 10875 10877 10880 10884 10886 10888 10891 10894 10897 10900 10901 10902 10904 10906 10908 10909 10910 10911 10913 10914 10914 10915 10916 10917 10919 10920 10920 10921 10923 10924 10925 10926 10926 10926 10926 10927 10927 10926 10926
10816 10813 10811 10809 10807 10806 10804 10802 10800 10798 10797 10795 10794 10793 10792 10792 10791 10790 10790 10790 10790 10791 10792 10792 10793 10795 10797 10799 10802 10805 10809 10812 10816 10821 10826 10830 10834 10838 10842 10846 10850 10855 10859 10862 10865 10868 10870 10873 10876 10879 10882 10884 10886 10889 10892 10895 10897 10899 10900 10902 10904 10905 10906 10907 10909 10910 10911 10911 10911 10912 10914 10915 10915 10917 10918 10919 10919 10920 10920 10921 10921 10922 10922 10922 10922
10809 10808 10806 10804 10802 10800 10798 10796 10794 10792 10790 10788 10787 10786 10785 10784 10783 10783 10783 10783 10782 10783 10783 10784 10785 10786 10788 10790 10793 10796 10800 10803 10808 10813 10818 10822 10827 10831 10835 10839 10843 10849 10853 10856 10859 10863 10866 10868 10871 10874 10877 10880 10882 10884 10887 10889 10891 10893 10896 10898 10900 10901 10902 10904 10905 10906 10907 10908 10908 10909 10910 10911 10912 10914 10915 10916 10916 10916 10916 10917 10917 10917 10918 10918 10918
10801 10799 10797 10795 10793 10792 10790 10788 10786 10784 10782 10781 10780 10778 10777 10776 10775 10774 10774 10774 10774 10775 10774 10775 10776 10777 10779 10782 10784 10787 10790 10794 10799 10804 10809 10814 10819 10824 10828 10832 10836 10842 10847 10850 10854 10857 10861 10864 10866 10869 10872 10875 10877 10879 10882 10884 10886 10887 10890 10894 10896 10898 10900 10901 10902 10902 10903 10903 10903 10905 10906 10907 10909 10911 10912 10913 10914 10913 10913 10913 10912 10912 10913 10913 10912
10792 10790 10788 10786 10784 10783 10781 10780 10778 10776 10774 10773 10772 10770 10769 10768 10767 10766 10766 10766 10766 10766 10766 10766 10767 10768 10770 10773 10775 10778 10781 10784 10789 10795 10801 10806 10812 10817 10822 10826 10830 10835 10840 10844 10848 10851 10855 10859 10862 10864 10867 10869 10872 10875 10877 10879 10881 10883 10886 10890 10893 10895 10896 10897 10897 10898 10898 10898 10900 10901 10902 10903 10905 10906 10907 10909 10909 10909 10909 10908 10908 10908 10908 10907 10907
10784 10782 10780 10778 10777 10775 10773 10772 10770 10768 10766 10765 10763 10762 10761 10760 10759 10758 10758 10757 10757 10757 10757 10757 10758 10759 10761 10764 10766 10769 10771 10774 10780 10786 10792 10798 10804 10810 10815 10820 10823 10828 10833 10837 10841 10845 10849 10853 10856 10859 10861 10865 10867 10870 10872 10874 10877 10879 10883 10885 10887 10887 10889 10891 10892 10893 10894 10895 10896 10897 10898 10899 10900 10902 10904 10905 10904 10904 10903 10903 10903 10903 10902 10902 10902
10778 10776 10773 10771 10769 10767 10765 10763 10761 10759 10757 10756 10755 10754 10753 10752 10751 10750 10750 10749 10748 10748 10748 10748 10749 10750 10752 10755 10758 10760 10762 10765 10771 10778 10784 10790 10796 10802 10808 10812 10816 10821 10825 10830 10834 10839 10842 10846 10850 10853 10856 10859 10862 10863 10866 10869 10872 10875 10878 10879 10877 10878 10883 10886 10887 10888 10889 10890 10891 10892 10893 10895 10896 10898 10900 10901 10900 10900 10898 10897 10897 10897 10897 10897 10896
10771 10768 10766 10763 10761 10759 10757 10755 10753 10751 10749 10748 10746 10745 10745 10744 10743 10743 10742 10741 10739 10739 10739 10740 10741 10742 10743 10746 10749 10751 10753 10757 10762 10768 10774 10781 10788 10794 10800 10804 10809 10813 10818 10823 10827 10831 10835 10840 10843 10846 10850 10854 10856 10857 10860 10864 10867 10869 10871 10871 10870 10872 10877 10880 10881 10883 10885 10886 10887 10888 10890 10891 10892 10894 10896 10896 10896 10895 10893 10890 10891 10891 10891 10891 10890
10764 10761 10758 10756 10754 10752 10749 10747 10745 10743 10741 10739 10738 10737 10736 10735 10735 10735 10734 10732 10731 10731 10732 10732 10733 10734 10736 10738 10741 10743 10745 10748 10753 10759 10765 10772 10779 10786 10792 10797 10802 10806 10810 10815 10820 10824 10828 10832 10836 10840 10844 10847 10849 10852 10856 10859 10862 10864 10864 10865 10865 10868 10871 10873 10875 10878 10881 10883 10884 10885 10886 10887 10888 10890 10891 10891 10890 10890 10887 10885 10885 10886 10886 10885 10884
10758 10755 10752 10749 10747 10744 10742 10740 10737 10735 10733 10731 10730 10729 10728 10728 10728 10727 10726 10724 10723 10724 10724 10725 10725 10727 10729 10731 10733 10736 10737 10739 10745 10750 10756 10763 10771 10778 10784 10790 10795 10799 10803 10807 10812 10817 10821 10825 10830 10834 10838 10840 10842 10847 10851 10854 10857 10858 10859 10860 10863 10865 10865 10867 10871 10874 10877 10879 10880 10881 10882 10882 10883 10884 10886 10885 10884 10884 10882 10880 10879 10880 10880 10879 10877
10752 10749 10746 10743 10740 10737 10735 10732 10730 10727 10725 10724 10722 10721 10720 10720 10720 10719 10718 10717 10717 10716 10717 10718 10719 10720 10722 10723 10725 10728 10729 10731 10737 10743 10748 10754 10762 10769 10776 10782 10787 10790 10794 10799 10804 10810 10815 10819 10824 10827 10830 10832 10836 10843 10847 10850 10852 10853 10853 10856 10860 10859 10858 10860 10866 10870 10872 10874 10875 10875 10877 10878 10878 10879 10880 10879 10878 10877 10876 10875 10874 10874 10873 10872 10871
10745 10742 10739 10736 10734 10731 10728 10725 10723 10721 10719 10717 10715 10714 10713 10713 10712 10711 10711 10711 10711 10710 10711 10712 10712 10713 10715 10716 10718 10720 10722 10724 10729 10735 10740 10746 10753 10760 10767 10773 10777 10781 10786 10791 10797 10803 10808 10813 10817 10820 10823 10826 10832 10838 10843 10846 10848 10849 10849 10851 10853 10851 10851 10856 10862 10865 10867 10869 10868 10868 10869 10870 10871 10873 10874 10874 10872 10871 10870 10869 10869 10868 10866 10865 10864
10739 10736 10733 10730 10728 10725 10722 10719 10717 10715 10713 10711 10709 10707 10707 10706 10705 10704 10705 10705 10705 10705 10705 10706 10706 10706 10708 10710 10711 10713 10716 10718 10721 10726 10731 10737 10743 10751 10758 10763 10767 10772 10778 10784 10790 10796 10801 10806 10810 10813 10817 10821 10827 10833 10838 10841 10843 10844 10844 10843 10843 10844 10848 10854 10856 10859 10863 10864 10861 10861 10862 10863 10864 10866 10867 10867 10866 10865 10864 10863 10863 10862 10860 10858 10857
10733 10730 10727 10724 10722 10718 10715 10713 10711 10709 10707 10705 10702 10701 10701 10700 10699 10698 10699 10699 10700 10700 10700 10700 10700 10701 10702 10704 10706 10707 10710 10712 10715 10718 10724 10729 10734 10741 10747 10752 10757 10764 10771 10778 10783 10788 10792 10797 10802 10807 10811 10816 10821 10827 10832 10835 10838 10839 10837 10835 10836 10840 10845 10849 10851 10853 10856 10856 10855 10856 10857 10857 10858 10859 10860 10860 10860 10860 10859 10857 10856 10855 10854 10851 10850
10726 10723 10720 10718 10715 10711 10708 10706 10705 10703 10701 10698 10696 10695 10694 10694 10694 10693 10693 10694 10695 10695 10695 10695 10696 10697 10698 10699 10701 10702 10704 10706 10709 10712 10717 10722 10727 10732 10738 10743 10749 10757 10764 10770 10775 10779 10784 10790 10795 10800 10805 10810 10815 10821 10825 10828 10832 10834 10831 10829 10832 10836 10838 10841 10845 10847 10849 10850 10850 10850 10851 10851 10852 10853 10854 10854 10854 10854 10852 10851 10849 10848 10846 10845 10843
10718 10715 10713 10710 10708 10705 10702 10700 10699 10697 10694 10692 10690 10689 10689 10689 10689 10688 10688 10689 10690 10690 10691 10691 10692 10693 10693 10695 10696 10697 10699 10701 10704 10707 10711 10716 10720 10724 10729 10734 10742 10749 10756 10761 10767 10772 10778 10783 10788 10793 10799 10804 10809 10814 10819 10822 10826 10826 10824 10824 10827 10831 10832 10835 10839 10842 10843 10844 10844 10844 10844 10846 10847 10847 10847 10847 10848 10848 10846 10844 10842 10840 10839 10838 10836
10710 10708 10706 10703 10701 10698 10696 10694 10693 10690 10688 10686 10684 10684 10684 10684 10684 10684 10684 10685 10686 10686 10687 10688 10688 10688 10688 10689 10691 10692 10694 10696 10699 10702 10706 10710 10714 10718 10723 10728 10735 10742 10748 10754 10760 10766 10771 10776 10782 10788 10794 10799 10804 10808 10812 10815 10817 10817 10817 10819 10822 10825 10828 10830 10832 10834 10836 10838 10838 10837 10838 10839 10840 10840 10840 10840 10841 10841 10840 10838 10836 10834 10832 10830 10829
10702 10700 10698 10696 10694 10692 10690 10688 10686 10684 10682 10681 10680 10679 10679 10679 10679 10679 10680 10681 10682 10682 10683 10684 10683 10683 10684 10685 10686 10688 10690 10692 10694 10697 10701 10704 10708 10712 10717 10722 10729 10735 10741 10746 10753 10760 10766 10771 10777 10783 10788 10793 10798 10801 10804 10807 10809 10810 10811 10812 10815 10819 10821 10822 10823 10825 10828 10830 10831 10831 10831 10832 10833 10833 10833 10832 10832 10832 10832 10831 10829 10828 10825 10823 10823
10696 10693 10692 10690 10688 10686 10684 10682 10680 10679 10677 10676 10675 10675 10675 10675 10675 10676 10676 10677 10678 10679 10679 10680 10680 10680 10680 10681 10683 10685 10686 10688 10690 10692 10695 10698 10702 10706 10711 10716 10721 10728 10733 10740 10747 10755 10761 10767 10772 10778 10783 10787 10790 10793 10796 10799 10801 10802 10804 10806 10808 10811 10813 10814 10816 10819 10822 10823 10823 10823 10824 10825 10825 10825 10825 10825 10824 10824 10825 10824 10822 10821 10819 10816 10816
10689 10687 10685 10683 10681 10680 10679 10676 10674 10673 10673 10672 10671 10671 10671 10671 10671 10672 10673 10674 10675 10675 10676 10677 10677 10677 10678 10679 10680 10682 10683 10685 10687 10689 10691 10693 10697 10700 10705 10710 10715 10720 10726 10733 10741 10748 10755 10760 10766 10771 10776 10779 10783 10786 10789 10790 10792 10794 10796 10799 10801 10803 10805 10807 10810 10812 10815 10816 10815 10815 10816 10816 10817 10817 10816 10817 10817 10817 10817 10816 10815 10814 10811 10809 10808
10683 10681 10679 10677 10676 10675 10673 10671 10669 10668 10668 10667 10667 10667 10667 10668 10668 10669 10670 10671 10672 10673 10673 10674 10674 10675 10675 10676 10677 10679 10680 10681 10683 10685 10687 10690 10693 10696 10700 10705 10709 10714 10720 10727 10735 10741 10747 10752 10757 10763 10768 10771 10774 10778 10779 10781 10783 10786 10789 10791 10794 10795 10797 10799 10801 10804 10807 10807 10807 10807 10808 10808 10808 10807 10808 10809 10810 10810 10809 10808 10807 10806 10804 10802 10801
10677 10676 10674 10672 10670 10669 10668 10666 10664 10664 10664 10664 10664 10664 10664 10665 10665 10666 10668 10670 10671 10671 10672 10672 10672 10673 10673 10673 10675 10676 10677 10678 10680 10681 10683 10686 10689 10692 10696 10700 10704 10709 10714 10721 10727 10733 10739 10745 10751 10756 10760 10764 10767 10770 10770 10772 10775 10778 10781 10783 10785 10787 10789 10791 10793 10796 10797 10797 10798 10799 10800 10800 10799 10798 10799 10801 10802 10802 10800 10800 10800 10800 10798 10795 10794
10670 10670 10669 10667 10665 10664 10663 10661 10660 10660 10660 10660 10661 10661 10661 10662 10663 10664 10666 10669 10670 10670 10671 10671 10671 10671 10671 10672 10673 10675 10676 10677 10678 10679 10681 10683 10686 10689 10692 10696 10700 10704 10709 10714 10721 10727 10733 10739 10744 10749 10753 10756 10759 10760 10760 10762 10766 10769 10772 10774 10776 10779 10781 10783 10786 10788 10788 10788 10789 10791 10791 10791 10791 10791 10792 10792 10792 10793 10792 10791 10792 10793 10791 10788 10785
10664 10664 10663 10662 10660 10659 10658 10657 10657 10656 10656 10657 10658 10658 10659 10659 10660 10662 10665 10667 10668 10669 10670 10670 10669 10669 10670 10671 10672 10673 10675 10676 10677 10678 10679 10681 10683 10686 10688 10692 10695 10699 10703 10709 10715 10721 10725 10730 10735 10741 10744 10746 10747 10748 10749 10753 10758 10762 10765 10767 10769 10772 10773 10774 10777 10779 10780 10781 10782 10783 10783 10784 10784 10784 10784 10783 10783 10783 10782 10781 10782 10782 10781 10779 10776
10659 10658 10658 10657 10656 10654 10654 10653 10653 10653 10653 10654 10655 10656 10656 10657 10658 10660 10663 10665 10666 10667 10668 10669 10669 10669 10669 10669 10671 10673 10674 10676 10677 10677 10678 10680 10681 10683 10685 10687 10690 10693 10697 10703 10708 10711 10715 10720 10726 10732 10736 10738 10739 10741 10744 10748 10752 10755 10758 10760 10762 10763 10764 10766 10770 10773 10773 10774 10775 10776 10776 10776 10775 10775 10775 10774 10773 10772 10771 10771 10771 10771 10770 10768 10767
10655 10654 10653 10652 10651 10650 10650 10650 10650 10650 10650 10651 10652 10653 10654 10655 10656 10658 10661 10664 10665 10666 10667 10667 10668 10668 10668 10669 10670 10672 10673 10674 10675 10676 10677 10678 10679 10681 10682 10684 10687 10690 10693 10698 10702 10704 10707 10712 10717 10722 10727 10729 10731 10733 10737 10741 10744 10746 10749 10752 10755 10756 10756 10759 10762 10764 10765 10766 10767 10767 10767 10767 10766 10765 10764 10763 10762 10761 10761 10760 10760 10759 10759 10759 10757
10650 10649 10648 10648 10647 10647 10646 10647 10647 10647 10648 10649 10650 10650 10651 10652 10654 10657 10660 10662 10663 10665 10666 10666 10667 10667 10668 10668 10669 10670 10672 10673 10674 10675 10677 10678 10679 10680 10681 10683 10685 10688 10692 10695 10698 10700 10703 10706 10710 10714 10718 10721 10722 10725 10730 10734 10735 10737 10741 10744 10746 10748 10749 10751 10753 10755 10756 10756 10757 10757 10757 10756 10754 10754 10753 10753 10752 10752 10751 10751 10750 10749 10749 10748 10747
10645 10644 10644 10644 10643 10643 10643 10644 10644 10644 10645 10646 10647 10648 10649 10650 10652 10655 10657 10660 10661 10663 10664 10665 10666 10667 10667 10668 10668 10669 10670 10672 10673 10675 10676 10677 10678 10679 10681 10682 10683 10686 10689 10692 10694 10697 10700 10702 10704 10707 10710 10714 10716 10719 10722 10725 10727 10729 10733 10736 10738 10740 10742 10744 10745 10745 10746 10746 10746 10746 10745 10744 10743 10743 10744 10745 10744 10744 10743 10742 10741 10739 10738 10737 10736
10641 10640 10640 10640 10640 10640 10640 10641 10641 10642 10643 10644 10645 10645 10646 10648 10649 10652 10655 10657 10659 10661 10662 10664 10665 10665 10665 10666 10667 10668 10669 10671 10672 10674 10675 10677 10678 10679 10680 10682 10683 10684 10686 10688 10690 10693 10695 10698 10700 10702 10704 10707 10710 10712 10715 10718 10720 10722 10726 10728 10730 10732 10734 10735 10736 10736 10736 10735 10734 10733 10734 10734 10735 10736 10736 10736 10735 10734 10733 10731 10729 10728 10726 10725 10724
10638 10637 10636 10636 10637 10637 10637 10638 10639 10639 10641 10642 10642 10642 10643 10644 10646 10649 10652 10655 10657 10659 10661 10662 10663 10663 10664 10665 10666 10667 10668 10670 10671 10673 10675 10676 10677 10678 10679 10681 10682 10684 10685 10686 10687 10689 10691 10693 10695 10696 10698 10701 10703 10706 10708 10711 10713 10715 10717 10719 10721 10722 10724 10725 10725 10725 10724 10724 10724 10725 10726 10726 10726 10726 10726 10725 10724 10722 10720 10718 10717 10716 10715 10714 10713
10634 10633 10633 10633 10634 10634 10634 10635 10636 10637 10638 10639 10640 10640 10640 10642 10644 10647 10650 10653 10655 10657 10658 10660 10661 10662 10663 10664 10665 10667 10668 10669 10671 10672 10674 10675 10676 10677 10678 10680 10681 10682 10683 10684 10685 10686 10687 10688 10690 10691 10692 10695 10697 10699 10701 10704 10706 10707 10708 10710 10711 10713 10714 10715 10716 10716 10716 10716 10716 10717 10717 10716 10716 10715 10714 10713 10712 10711 10709 10708 10707 10705 10704 10703 10701
10630 10630 10630 10630 10631 10631 10632 10632 10633 10635 10636 10637 10638 10638 10639 10640 10643 10646 10648 10650 10652 10654 10656 10657 10659 10660 10662 10663 10664 10666 10667 10668 10670 10671 10672 10673 10674 10675 10676 10678 10679 10680 10681 10682 10682 10683 10684 10685 10686 10687 10688 10689 10691 10693 10695 10697 10698 10699 10700 10701 10703 10704 10706 10707 10707 10708 10708 10707 10706 10706 10706 10705 10705 10704 10703 10702 10701 10700 10699 10698 10696 10694 10692 10691 10689
10627 10627 10627 10627 10628 10628 10629 10629 10631 10632 10634 10635 10636 10637 10638 10639 10642 10644 10646 10648 10650 10652 10653 10654 10656 10658 10660 10661 10662 10663 10665 10667 10668 10669 10670 10670 10672 10673 10674 10675 10676 10677 10678 10679 10680 10681 10681 10682 10683 10684 10684 10684 10685 10686 10688 10690 10691 10692 10692 10694 10695 10696 10697 10698 10698 10698 10697 10697 10696 10696 10695 10695 10694 10693 10693 10691 10690 10689 10688 10686 10685 10683 10681 10680 10678
10624 10624 10624 10625 10625 10625 10626 10627 10628 10630 10631 10632 10634 10635 10636 10638 10639 10641 10644 10646 10648 10650 10651 10652 10653 10656 10658 10658 10659 10661 10662 10664 10666 10666 10667 10668 10669 10670 10671 10672 10673 10673 10675 10676 10676 10677 10678 10678 10679 10679 10680 10680 10681 10682 10683 10684 10685 10686 10686 10687 10688 10688 10689 10689 10689 10689 10688 10688 10687 10686 10686 10685 10684 10683 10682 10681 10680 10678 10677 10675 10674 10672 10670 10668 10666
10621 10621 10622 10622 10622 10622 10623 10624 10626 10627 10629 10630 10632 10633 10634 10635 10636 10638 10641 10644 10646 10648 10649 10649 10650 10652 10655 10656 10657 10658 10660 10661 10663 10663 10664 10665 10666 10667 10668 10669 10669 10670 10670 10671 10672 10672 10673 10673 10674 10674 10675 10676 10677 10677 10678 10679 10680 10680 10680 10681 10681 10681 10681 10681 10681 10681 10680 10680 10679 10678 10677 10677 10675 10674 10673 10671 10670 10668 10666 10664 10662 10660 10658 10656 10653
10618 10619 10619 10619 10619 10620 10621 10622 10624 10625 10627 10628 10629 10630 10631 10632 10633 10635 10638 10642 10644 10646 10647 10647 10648 10649 10651 10653 10655 10656 10657 10658 10659 10661 10662 10663 10663 10664 10665 10665 10666 10666 10666 10667 10668 10667 10668 10668 10669 10670 10671 10671 10672 10672 10673 10673 10674 10674 10674 10674 10674 10674 10674 10674 10674 10673 10673 10672 10672 10671 10669 10668 10667 10665 10664 10662 10660 10658 10656 10654 10651 10649 10646 10644 10641
10616 10616 10617 10617 10617 10617 10619 10620 10622 10623 10625 10625 10626 10627 10628 10629 10630 10632 10635 10639 10642 10643 10645 10645 10646 10646 10648 10650 10651 10653 10654 10655 10656 10657 10659 10659 10660 10660 10661 10661 10662 10662 10663 10663 10664 10663 10664 10664 10665 10665 10665 10666 10666 10667 10667 10667 10667 10668 10668 10668 10668 10668 10667 10667 10666 10665 10664 10663 10663 10661 10660 10659 10657 10655 10654 10652 10649 10647 10645 10642 10640 10637 10634 10632 10628
10613 10614 10614 10614 10615 10615 10616 10618 10619 10621 10622 10622 10623 10624 10625 10626 10627 10629 10632 10636 10639 10640 10642 10643 10644 10645 10645 10646 10648 10649 10651 10652 10653 10654 10655 10656 10656 10657 10657 10658 10658 10658 10659 10660 10660 10660 10660 10659 10660 10660 10660 10660 10661 10661 10662 10662 10662 10662 10662 10661 10661 10660 10660 10659 10658 10656 10655 10654 10653 10652 10650 10648 10646 10644 10642 10640 10638 10636 10633 10631 10628 10625 10622 10619 10615
10611 10612 10612 10612 10612 10613 10614 10615 10617 10618 10619 10619 10620 10622 10623 10624 10625 10627 10629 10631 10635 10637 10639 10641 10642 10643 10644 10644 10645 10646 10647 10648 10649 10650 10651 10652 10652 10653 10653 10654 10654 10654 10655 10655 10655 10655 10655 10655 10655 10655 10656 10656 10656 10656 10656 10656 10656 10655 10655 10654 10653 10652 10651 10650 10649 10648 10646 10645 10643 10641 10639 10637 10635 10633 10631 10628 10626 10623 10621 10618 10615 10612 10609 10606 10602
10609 10609 10609 10609 10610 10611 10612 10614 10615 10616 10617 10617 10618 10620 10621 10622 10624 10625 10625 10627 10630 10633 10636 10638 10639 10641 10641 10642 10643 10643 10644 10645 10645 10646 10647 10648 10648 10649 10649 10650 10650 10651 10651 10651 10651 10651 10650 10650 10650 10650 10650 10650 10649 10649 10649 10649 10648 10648 10647 10646 10645 10644 10643 10641 10640 10638 10637 10635 10633 10631 10628 10626 10624 10621 10619 10616 10613 10610 10608 10605 10602 10599 10596 10592 10589
10607 10607 10607 10608 10608 10610 10611 10612 10613 10613 10614 10615 10616 10618 10619 10620 10621 10622 10622 10624 10626 10628 10631 10634 10636 10637 10638 10639 10640 10640 10641 10641 10642 10642 10643 10643 10644 10645 10645 10645 10645 10646 10646 10646 10646 10646 10645 10645 10644 10644 10643 10643 10642 10642 10641 10641 10640 10640 10639 10638 10637 10635 10634 10632 10630 10628 10626 10624 10622 10620 10617 10615 10612 10610 10607 10604 10601 10598 10595 10592 10589 10585 10582 10578 10574
10605 10605 10606 10607 10607 10608 10609 10610 10610 10611 10612 10613 10615 10616 10617 10618 10618 10619 10619 10621 10623 10625 10627 10629 10631 10633 10634 10635 10636 10637 10637 10637 10638 10638 10638 10639 10639 10639 10640 10640 10639 10639 10639 10639 10639 10639 10639 10638 10638 10637 10637 10636 10635 10634 10634 10633 10632 10631 10630 10629 10627 10626 10624 10622 10620 10618 10616 10614 10611 10609 10606 10604 10601 10598 10594 10591 10588 10585 10582 10578 10575 10571 10567 10563 10559
10603 10604 10604 10605 10606 10606 10607 10607 10608 10609 10610 10611 10613 10614 10615 10615 10616 10617 10618 10619 10620 10622 10624 10625 10627 10628 10630 10631 10632 10632 10632 10632 10633 10633 10633 10633 10633 10633 10633 10633 10633 10633 10632 10632 10632 10631 10631 10631 10630 10630 10629 10628 10627 10626 10625 10624 10623 10621 10620 10618 10616 10615 10613 10611 10609 10606 10604 10602 10599 10597 10594 10591 10588 10584 10581 10577 10574 10570 10566 10563 10559 10555 10551 10547 10542